TimeCET,TemperatureF,Dew PointF,Humidity,Sea Level PressureIn,VisibilityMPH,Wind Direction,Wind SpeedMPH,Gust SpeedMPH,PrecipitationIn,Events,Conditions,WindDirDegrees,DateUTC
12:15 AM,46.4,42.8,87,30.24,3.7,North,1.2,-,N/A,,Partly Cloudy,10,2013-01-07 23:15:00
12:45 AM,44.6,42.8,93,30.24,3.7,NW,4.6,-,N/A,,Partly Cloudy,320,2013-01-07 23:45:00
12:55 AM,44.6,42.8,93,30.24,3.7,NW,4.6,-,N/A,,Partly Cloudy,320,2013-01-07 23:55:00
1:00 AM,45,43,89,30.26,4,NW,4.6,,,,Mist,320,2013-01-08 00:00:00
1:15 AM,42.8,41.0,93,30.24,3.1,NW,3.5,-,N/A,,Partly Cloudy,320,2013-01-08 00:15:00
1:45 AM,42.8,41.0,93,30.24,3.1,NW,3.5,-,N/A,,Partly Cloudy,320,2013-01-08 00:45:00
2:15 AM,42.8,42.8,100,30.24,3.1,WNW,4.6,-,N/A,,Partly Cloudy,300,2013-01-08 01:15:00
2:45 AM,42.8,41.0,93,30.24,3.1,NW,5.8,-,N/A,,Partly Cloudy,310,2013-01-08 01:45:00
2:55 AM,42.8,41.0,93,30.24,3.1,NW,5.8,-,N/A,,Partly Cloudy,310,2013-01-08 01:55:00
3:15 AM,42.8,41.0,93,30.27,2.5,NW,4.6,-,N/A,,Partly Cloudy,310,2013-01-08 02:15:00
3:45 AM,-9999,-9999,N/A,30.27,2.5,NW,4.6,-,N/A,,Mostly Cloudy,320,2013-01-08 02:45:00
3:55 AM,42.8,41.0,93,30.27,2.5,NW,4.6,-,N/A,,Mostly Cloudy,320,2013-01-08 02:55:00
4:00 AM,42,42,99,30.28,1,NW,4.6,,,,Mist,320,2013-01-08 03:00:00
4:15 AM,42.8,41.0,93,30.24,4.3,NW,1.2,-,N/A,,Mostly Cloudy,320,2013-01-08 03:15:00
4:45 AM,42.8,42.8,100,30.24,3.7,WNW,4.6,-,N/A,,Partly Cloudy,300,2013-01-08 03:45:00
4:55 AM,42.8,42.8,100,30.24,3.7,WNW,4.6,-,N/A,,Partly Cloudy,300,2013-01-08 03:55:00
5:15 AM,41.0,41.0,100,30.24,3.7,WNW,5.8,-,N/A,,Partly Cloudy,300,2013-01-08 04:15:00
5:45 AM,41.0,39.2,93,30.27,0.4,NW,6.9,-,N/A,Fog,Fog,320,2013-01-08 04:45:00
5:55 AM,41.0,39.2,93,30.27,0.4,NW,6.9,-,N/A,Fog,Fog,320,2013-01-08 04:55:00
6:15 AM,39.2,39.2,100,30.27,0.5,NNW,5.8,-,N/A,Fog,Fog,330,2013-01-08 05:15:00
6:55 AM,39.2,37.4,93,30.27,0.2,NW,4.6,-,N/A,Fog,Fog,320,2013-01-08 05:55:00
7:00 AM,39,38,96,30.27,0,NW,4.6,,,Fog,Partial Fog,320,2013-01-08 06:00:00
7:15 AM,39.2,37.4,93,30.27,0.3,NW,4.6,-,N/A,Fog,Fog,320,2013-01-08 06:15:00
7:45 AM,-9999,-9999,N/A,30.27,0.9,NW,6.9,-,N/A,Fog,Fog,320,2013-01-08 06:45:00
7:55 AM,39.2,37.4,93,30.27,0.9,NW,6.9,-,N/A,Fog,Fog,320,2013-01-08 06:55:00
8:15 AM,39.2,37.4,93,30.27,0.2,NW,5.8,-,N/A,Fog,Fog,320,2013-01-08 07:15:00
8:45 AM,39.2,37.4,93,30.27,0.3,NW,6.9,-,N/A,Fog,Fog,320,2013-01-08 07:45:00
8:55 AM,39.2,37.4,93,30.27,0.3,NW,6.9,-,N/A,Fog,Fog,320,2013-01-08 07:55:00
9:15 AM,41.0,41.0,100,30.30,1.1,NW,5.8,-,N/A,,Partly Cloudy,320,2013-01-08 08:15:00
9:45 AM,42.8,42.8,100,30.30,0.4,WNW,5.8,-,N/A,Fog,Fog,300,2013-01-08 08:45:00
9:55 AM,42.8,42.8,100,30.30,0.4,WNW,5.8,-,N/A,Fog,Fog,300,2013-01-08 08:55:00
10:00 AM,43,43,98,30.32,0,WNW,5.8,,,Fog,Partial Fog,300,2013-01-08 09:00:00
10:15 AM,44.6,44.6,100,30.30,1.2,NW,5.8,-,N/A,,Scattered Clouds,310,2013-01-08 09:15:00
10:45 AM,48.2,48.2,100,30.30,1.9,WNW,6.9,-,N/A,,Partly Cloudy,290,2013-01-08 09:45:00
10:55 AM,48.2,48.2,100,30.30,1.9,WNW,6.9,-,N/A,,Partly Cloudy,290,2013-01-08 09:55:00
11:15 AM,50.0,50.0,100,30.30,3.1,WNW,5.8,-,N/A,,Partly Cloudy,290,2013-01-08 10:15:00
11:45 AM,53.6,51.8,94,30.30,5.0,West,4.6,-,N/A,,Partly Cloudy,270,2013-01-08 10:45:00
11:55 AM,53.6,51.8,94,30.30,5.0,West,4.6,-,N/A,,Partly Cloudy,270,2013-01-08 10:55:00
12:15 PM,53.6,53.6,100,30.30,5.0,West,4.6,-,N/A,,Partly Cloudy,280,2013-01-08 11:15:00
12:45 PM,59.0,53.6,82,30.27,6.2,West,6.9,-,N/A,,Partly Cloudy,280,2013-01-08 11:45:00
12:55 PM,59.0,53.6,82,30.27,6.2,West,6.9,-,N/A,,Partly Cloudy,280,2013-01-08 11:55:00
1:00 PM,59,54,77,30.29,6,West,6.9,,,,Partly Cloudy,280,2013-01-08 12:00:00
1:15 PM,59.0,51.8,77,30.27,6.2,WNW,6.9,-,N/A,,Partly Cloudy,300,2013-01-08 12:15:00
1:45 PM,60.8,53.6,77,30.27,6.2,WNW,6.9,-,N/A,,Partly Cloudy,290,2013-01-08 12:45:00
1:55 PM,60.8,53.6,77,30.27,6.2,WNW,6.9,-,N/A,,Partly Cloudy,290,2013-01-08 12:55:00
2:15 PM,60.8,51.8,72,30.24,6.2,WNW,6.9,-,N/A,,Partly Cloudy,300,2013-01-08 13:15:00
2:45 PM,62.6,50.0,63,30.24,6.2,WNW,9.2,-,N/A,,Partly Cloudy,300,2013-01-08 13:45:00
2:55 PM,62.6,50.0,63,30.24,6.2,WNW,9.2,-,N/A,,Partly Cloudy,300,2013-01-08 13:55:00
3:15 PM,62.6,50.0,63,30.24,6.2,WNW,10.4,-,N/A,,Partly Cloudy,300,2013-01-08 14:15:00
3:45 PM,60.8,50.0,68,30.24,6.2,WNW,6.9,-,N/A,,Partly Cloudy,300,2013-01-08 14:45:00
3:55 PM,60.8,50.0,68,30.24,6.2,WNW,6.9,-,N/A,,Partly Cloudy,300,2013-01-08 14:55:00
4:00 PM,62,51,57,30.26,7,WNW,6.9,,,,Scattered Clouds,300,2013-01-08 15:00:00
4:45 PM,59.0,48.2,67,30.24,6.2,WNW,11.5,-,N/A,,Partly Cloudy,300,2013-01-08 15:45:00
4:55 PM,59.0,48.2,67,30.24,6.2,WNW,11.5,-,N/A,,Partly Cloudy,300,2013-01-08 15:55:00
5:15 PM,57.2,48.2,72,30.24,6.2,WNW,11.5,-,N/A,,Partly Cloudy,290,2013-01-08 16:15:00
5:45 PM,55.4,48.2,77,30.24,6.2,West,10.4,-,N/A,,Partly Cloudy,280,2013-01-08 16:45:00
5:55 PM,55.4,48.2,77,30.24,6.2,West,10.4,-,N/A,,Partly Cloudy,280,2013-01-08 16:55:00
6:15 PM,55.4,48.2,77,30.24,6.2,WNW,12.7,-,N/A,,Scattered Clouds,290,2013-01-08 17:15:00
6:45 PM,55.4,48.2,77,30.24,6.2,WNW,13.8,-,N/A,,Partly Cloudy,290,2013-01-08 17:45:00
7:00 PM,55,47,68,30.26,6,WNW,13.8,,,,Scattered Clouds,290,2013-01-08 18:00:00
7:15 PM,55.4,46.4,72,30.24,6.2,NW,10.4,-,N/A,,Partly Cloudy,310,2013-01-08 18:15:00
7:45 PM,53.6,46.4,77,30.24,6.2,NW,9.2,-,N/A,,Scattered Clouds,320,2013-01-08 18:45:00
8:15 PM,53.6,48.2,82,30.24,6.2,NW,8.1,-,N/A,,Scattered Clouds,320,2013-01-08 19:15:00
8:45 PM,53.6,48.2,82,30.24,6.2,WNW,4.6,-,N/A,,Mostly Cloudy,300,2013-01-08 19:45:00
9:15 PM,55.4,48.2,77,30.24,6.2,NNW,8.1,-,N/A,,Mostly Cloudy,340,2013-01-08 20:15:00
9:45 PM,55.4,48.2,77,30.24,6.2,NNW,4.6,-,N/A,,Mostly Cloudy,330,2013-01-08 20:45:00
10:00 PM,55,49,74,30.25,9,NNW,4.6,,,,Mostly Cloudy,330,2013-01-08 21:00:00
10:15 PM,53.6,48.2,82,30.24,6.2,West,3.5,-,N/A,,Mostly Cloudy,280,2013-01-08 21:15:00
10:45 PM,53.6,48.2,82,30.24,6.2,West,3.5,-,N/A,,Mostly Cloudy,280,2013-01-08 21:45:00
10:55 PM,53.6,48.2,82,30.24,6.2,West,3.5,-,N/A,,Mostly Cloudy,280,2013-01-08 21:55:00
11:15 PM,53.6,48.2,82,30.24,6.2,West,4.6,-,N/A,,Mostly Cloudy,280,2013-01-08 22:15:00
11:45 PM,53.6,48.2,82,30.24,6.2,NW,5.8,-,N/A,,Mostly Cloudy,320,2013-01-08 22:45:00
11:55 PM,53.6,48.2,82,30.24,6.2,NW,5.8,-,N/A,,Mostly Cloudy,320,2013-01-08 22:55:00